YO8KGT-13 Weather Reports


time (UTC)temp
F
wind
direction
speed
knots
gust
knots
rain 1hr
in
rain 24hr
in
rain mn
in
humidity
%
barometer
mb
20260504050420 58 338 0.0 1.7 0.00 0.00 0.00 56 948.0
20260504045426 58 0 0.0 0.9 0.00 0.00 0.00 56 948.0
20260504042920 56 225 0.9 1.7 0.00 0.00 0.00 59 948.0
20260504042421 55 225 0.0 1.7 0.00 0.00 0.00 60 948.0
20260504041927 54 225 0.0 1.7 0.00 0.00 0.00 60 948.0
20260504041428 54 225 1.7 1.7 0.00 0.00 0.00 61 948.0
20260504040421 53 225 0.0 0.0 0.00 0.00 0.00 62 948.0
20260504035925 52 225 0.0 0.0 0.00 0.00 0.00 63 948.0
20260504034920 52 225 0.0 0.0 0.00 0.00 0.00 64 948.0
20260504033921 51 225 0.0 0.0 0.00 0.00 0.00 64 948.0
20260504033420 50 225 0.0 0.0 0.00 0.00 0.00 64 948.0
20260504032924 50 225 0.0 0.0 0.00 0.00 0.00 64 948.0
20260504032420 50 225 0.0 0.0 0.00 0.00 0.00 65 948.0
20260504031922 50 225 0.0 0.0 0.00 0.00 0.00 65 947.0
20260504031422 50 225 0.0 0.0 0.00 0.00 0.00 65 948.0
20260504030934 50 225 0.0 1.7 0.00 0.00 0.00 65 947.0
20260504025924 50 225 0.0 1.7 0.00 0.00 0.00 65 947.0
20260504025420 49 225 0.0 1.7 0.00 0.00 0.00 66 947.0
20260504024921 49 225 0.0 1.7 0.00 0.00 0.00 67 947.0
20260504024426 49 225 0.0 0.0 0.00 0.00 0.00 67 948.0
20260504023926 48 225 0.0 0.0 0.00 0.00 0.00 67 947.0
20260504023421 48 225 0.0 0.0 0.00 0.00 0.00 67 947.0
20260504022921 48 225 0.0 0.0 0.00 0.00 0.00 67 947.0
20260504022430 48 225 0.0 0.0 0.00 0.00 0.00 67 947.0
20260504021922 47 225 0.0 0.0 0.00 0.00 0.00 67 947.0
20260504020926 48 225 0.0 0.0 0.00 0.00 0.00 68 947.0
20260504020438 48 225 0.0 0.0 0.00 0.00 0.00 68 947.0
20260504015923 47 225 0.0 0.0 0.00 0.00 0.00 69 947.0
20260504015421 47 225 0.0 0.0 0.00 0.00 0.00 69 947.0
20260504014920 46 225 0.0 0.0 0.00 0.00 0.00 69 947.0
20260504013925 46 225 0.0 0.0 0.00 0.00 0.00 68 947.0
20260504013421 46 225 0.0 0.0 0.00 0.00 0.00 68 947.0
20260504012921 46 225 0.0 0.0 0.00 0.00 0.00 68 947.0
20260504012420 46 225 0.0 0.0 0.00 0.00 0.00 68 947.0
20260504011936 46 225 0.0 0.0 0.00 0.00 0.00 69 947.0
20260504011421 46 225 0.0 0.0 0.00 0.00 0.00 68 947.0
20260504005420 47 225 0.0 0.0 0.00 0.00 0.00 68 947.0
20260504002921 46 225 0.0 0.0 0.00 0.00 0.00 68 947.0
20260504002420 46 225 0.0 0.0 0.00 0.00 0.00 68 947.0
20260504001438 46 225 0.0 0.0 0.00 0.00 0.00 68 947.0
20260504000923 46 225 0.0 0.0 0.00 0.00 0.00 67 947.0
20260504000420 46 225 0.0 0.0 0.00 0.00 0.00 67 947.0
20260503234926 46 225 0.0 0.0 0.00 0.00 0.00 66 947.0
20260503234420 46 225 0.0 0.0 0.00 0.00 0.00 66 947.0
20260503232421 47 225 0.0 0.0 0.00 0.00 0.00 65 947.0
20260503231920 47 225 0.0 0.0 0.00 0.00 0.00 65 948.0
20260503231423 47 225 0.0 0.0 0.00 0.00 0.00 65 947.0
20260503230921 47 225 0.0 0.0 0.00 0.00 0.00 65 947.0
20260503225922 47 225 0.0 0.0 0.00 0.00 0.00 64 948.0
20260503224435 47 225 0.0 0.0 0.00 0.00 0.00 63 948.0
20260503223924 47 225 0.0 0.0 0.00 0.00 0.00 63 948.0
20260503222425 48 225 0.0 0.0 0.00 0.00 0.00 62 948.0
20260503221922 48 225 0.0 0.0 0.00 0.00 0.00 62 948.0
20260503221422 48 225 0.0 0.0 0.00 0.00 0.00 61 948.0
20260503213921 49 225 0.0 0.0 0.00 0.00 0.00 59 948.0
20260503213422 49 225 0.0 0.0 0.00 0.00 0.00 59 948.0
20260503210421 50 225 0.0 0.0 0.00 0.00 0.00 57 948.0
20260503205920 50 225 0.0 0.0 0.00 0.00 0.00 57 948.0
20260503205444 50 225 0.0 0.0 0.00 0.00 0.00 56 948.0
20260503204919 50 225 0.0 0.0 0.00 0.00 0.00 55 948.0
20260503204421 50 225 0.0 0.0 0.00 0.00 0.00 55 948.0
20260503203920 50 225 0.0 0.0 0.00 0.00 0.00 54 948.0
20260503203422 51 225 0.0 0.0 0.00 0.00 0.00 54 948.0
20260503202420 51 225 0.0 3.5 0.00 0.00 0.00 54 948.0
20260503201920 51 225 0.0 3.5 0.00 0.00 0.00 53 948.0
20260503201421 51 225 2.6 3.5 0.00 0.00 0.00 53 948.0
20260503200936 51 225 1.7 2.6 0.00 0.00 0.00 53 948.0
20260503200422 51 225 2.6 2.6 0.00 0.00 0.00 52 948.0
20260503195422 52 225 0.0 0.0 0.00 0.00 0.00 51 948.0
20260503194923 52 225 0.0 0.0 0.00 0.00 0.00 51 948.0
20260503194422 52 225 0.0 0.0 0.00 0.00 0.00 51 948.0
20260503193420 52 225 0.0 0.9 0.00 0.00 0.00 51 948.0
20260503191921 53 225 0.0 0.0 0.00 0.00 0.00 50 948.0
20260503190940 53 225 0.0 1.7 0.00 0.00 0.00 49 948.0
20260503190443 53 225 0.0 1.7 0.00 0.00 0.00 49 948.0
20260503185421 54 225 0.0 1.7 0.00 0.00 0.00 48 948.0
20260503183929 54 225 2.6 3.5 0.00 0.00 0.00 48 948.0
20260503181420 56 202 0.0 2.6 0.00 0.00 0.00 46 948.0
20260503180919 56 202 1.7 2.6 0.00 0.00 0.00 46 948.0
20260503180425 56 202 2.6 3.5 0.00 0.00 0.00 46 948.0
20260503175423 56 225 1.7 3.5 0.00 0.00 0.00 45 948.0
20260503174919 57 248 1.7 2.6 0.00 0.00 0.00 45 948.0
20260503173932 57 270 0.0 3.5 0.00 0.00 0.00 44 948.0
20260503173432 57 270 3.5 3.5 0.00 0.00 0.00 44 948.0
20260503172920 58 248 3.5 3.5 0.00 0.00 0.00 43 948.0
20260503172426 58 248 1.7 2.6 0.00 0.00 0.00 43 948.0
20260503170924 59 0 0.0 1.7 0.00 0.00 0.00 41 948.0
20260503170420 59 0 0.0 1.7 0.00 0.00 0.00 41 948.0
20260503150922 65 0 0.0 0.0 0.00 0.00 0.00 36 949.0
20260503150432 66 0 0.0 0.0 0.00 0.00 0.00 36 949.0
20260503130920 70 0 0.0 2.6 0.00 0.00 0.00 32 950.0
20260503130421 70 0 0.0 2.6 0.00 0.00 0.00 32 950.0
20260503110434 71 22 0.9 2.6 0.00 0.00 0.00 30 951.0
20260503090419 64 0 0.0 2.6 0.00 0.00 0.00 36 953.0
20260503081420 61 22 0.0 3.5 0.00 0.00 0.00 40 954.0
20260503080421 61 22 0.0 3.5 0.00 0.00 0.00 40 954.0
20260503072940 60 0 0.0 0.9 0.00 0.00 0.00 48 954.0
20260503072439 60 0 0.0 0.9 0.00 0.00 0.00 48 954.0
20260503071922 60 22 0.0 1.7 0.00 0.00 0.00 51 954.0
20260503071419 59 22 0.0 1.7 0.00 0.00 0.00 52 954.0
20260503070921 59 22 0.0 0.9 0.00 0.00 0.00 54 954.0
20260503070422 58 22 0.0 0.9 0.00 0.00 0.00 56 954.0